Campo, CA

2:40 AM PST on December 11, 2019 (GMT -0800)
Campo

Weather History for KCZZ - August, 2019

Change the Weather History Date:

Friday, August 16, 2019

  Actual Average Record
Temperature  
Mean Temperature 72 °F 74 °F  
Max Temperature 96 °F 95 °F 106 °F (1962)
Min Temperature 48 °F 53 °F 36 °F (1993)
Degree Days  
Heating Degree Days 0 0  
Month to date heating degree days 0 0  
Since 1 June heating degree days 42 63  
Since 1 July heating degree days 6 7  
Cooling Degree Days 7 9  
Month to date cooling degree days 169 144  
Year to date cooling degree days 497 516  
Since 1 June cooling degree days 495 486  
Growing Degree Days 22 (Base 50)    
Moisture  
Dew Point 32 °F    
Average Humidity 33    
Maximum Humidity 61    
Minimum Humidity 4    
Precipitation  
Precipitation 0.00 in 0.02 in 1.16 in (1970)
Month to date precipitation 0.00 0.37  
Year to date precipitation 12.82 10.84  
Sea Level Pressure  
Sea Level Pressure 29.86 in    
Wind  
Wind Speed 8 mph (NNE)    
Max Wind Speed 20 mph    
Max Gust Speed 24 mph    
T = Trace of Precipitation, MM = Missing Value Source: NWS Daily Summary

Daily Weather History Graph

Daily Weather History Graph

Search for Another Location

Airport or City:

Astronomy

Aug. 16, 2019 Rise Set
Actual Time 6:10 AM PDT 7:29 PM PDT
Civil Twilight 5:44 AM PDT 7:55 PM PDT
Nautical Twilight 5:13 AM PDT 8:26 PM PDT
Astronomical Twilight 4:41 AM PDT 8:58 PM PDT
Moon 8:33 PM PDT (8/16) 7:05 AM PDT (8/16)
Length of Visible Light 14h 11m
Length of Day
13h 19m
Full, 99% of the Moon is Illuminated
Aug 16
Full
Aug 23
Last Quarter
Aug 30
New
Sep 5
First Quarter
Sep 13
Full

Hourly Weather History & Observations

Time (PDT) Temp. Dew Point Humidity Pressure Visibility Wind Dir Wind Speed Gust Speed Precip Events Conditions
12:52 AM 59.0 °F 44.1 °F 58% 29.87 in - NE 6.9 mph - N/A   Unknown
1:52 AM 55.9 °F 42.1 °F 60% 29.86 in - NE 6.9 mph - N/A   Unknown
2:52 AM 55.0 °F 37.9 °F 53% 29.86 in - NNE 4.6 mph - N/A   Unknown
4:52 AM 52.0 °F 30.9 °F 45% 29.87 in - NE 6.9 mph - N/A   Unknown
5:52 AM 50.0 °F 27.0 °F 41% 29.89 in - NNE 3.5 mph - N/A   Unknown
6:52 AM 53.1 °F 27.0 °F 37% 29.90 in - ENE 8.1 mph - N/A   Unknown
7:52 AM 66.9 °F 30.0 °F 25% 29.90 in - Calm Calm - N/A   Unknown
8:52 AM 81.0 °F 30.9 °F 16% 29.88 in - Calm Calm - N/A   Unknown
9:52 AM 89.1 °F 12.0 °F 6% 29.88 in - SSW 5.8 mph - N/A   Unknown
10:52 AM 93.0 °F 15.1 °F 6% 29.88 in - SSW 11.5 mph 17.3 mph N/A   Unknown
11:52 AM 93.9 °F 12.0 °F 5% 29.87 in - WSW 13.8 mph - N/A   Unknown
12:52 PM 95.0 °F 7.0 °F 4% 29.86 in - SSW 15.0 mph - N/A   Unknown
1:52 PM 95.0 °F 14.0 °F 5% 29.85 in - WSW 16.1 mph 21.9 mph N/A   Unknown
2:52 PM 93.9 °F 30.0 °F 10% 29.83 in - SW 16.1 mph - N/A   Unknown
3:52 PM 91.0 °F 37.9 °F 15% 29.82 in - SW 18.4 mph - N/A   Unknown
4:52 PM 89.1 °F 43.0 °F 20% 29.82 in - SW 17.3 mph - N/A   Unknown
5:52 PM 86.0 °F 44.1 °F 23% 29.83 in - SW 11.5 mph - N/A   Unknown
7:52 PM 71.1 °F 48.9 °F 45% 29.85 in - South 3.5 mph - N/A   Unknown
8:52 PM 64.0 °F 46.0 °F 52% 29.84 in - NNE 4.6 mph - N/A   Unknown
9:52 PM 62.1 °F 43.0 °F 50% 29.86 in - NNE 3.5 mph - N/A   Unknown
10:52 PM 54.0 °F 39.9 °F 59% 29.86 in - NNE 5.8 mph - N/A   Unknown
11:52 PM 54.0 °F 39.0 °F 57% 29.86 in - ENE 8.1 mph - N/A   Unknown